Facebook Twitter

Wetterstation Wunstorf

Messwerte
  Temperatur Wetter Niederschlag Luftdruck Wind
Mo, 00:40 Uhr 17° - 1013 hPa 10 km/h SW
Mo, 00:20 Uhr 17° - 1013 hPa 8 km/h SW
Mo, 00:00 Uhr 18° - 1013 hPa 7 km/h SW
So, 23:00 Uhr 18° - 1013 hPa 11 km/h S
So, 22:00 Uhr 20° - 1013 hPa 7 km/h SW
So, 21:00 Uhr 21° - 1012 hPa 11 km/h SW
So, 20:00 Uhr 22° 0.1 mm 1012 hPa 11 km/h W
So, 19:00 Uhr 23° - 1012 hPa 18 km/h W
So, 18:00 Uhr 24° - 1012 hPa 22 km/h W
So, 17:00 Uhr 23° - 1012 hPa 11 km/h W
So, 16:00 Uhr 22° - 1012 hPa 11 km/h W
So, 15:00 Uhr 22° - 1012 hPa 18 km/h SW
So, 14:00 Uhr 22° - 1012 hPa 18 km/h SW
So, 13:00 Uhr 21° - 1013 hPa 11 km/h SW
So, 12:00 Uhr 20° - 1013 hPa 18 km/h SW
So, 11:00 Uhr 19° - 1013 hPa 11 km/h SW
So, 10:00 Uhr 18° - 1013 hPa 18 km/h SW
So, 09:00 Uhr 16° - 1014 hPa 14 km/h SW
So, 08:00 Uhr 15° 0 mm 1014 hPa 11 km/h SW
So, 07:00 Uhr 13° - 1014 hPa 7 km/h N

Alle Zeitangaben MESZ